PHONESAT 2.4

Last updated on Wed Feb 01 2017 00:17:38 GMT+0000 (Coordinated Universal Time)

1 39381U 13064B 17030.69460700 .05363117 71439-5 69502-3 0 9991 2 39381 40.4713 23.6434 0005356 189.5894 170.4852 16.34649372180843

Satellite not in orbit

PHONESAT 2.4